Terminal Aerodrome Forecast
Issued by NWS San Angelo, TX

Home | Current Version | Previous Version | Text Only | Print | Product List | Glossary On
Versions: 1 2 3 4 5 6 7 8 9 10 11 12 13
000
FTUS44 KSJT 301700
TAFSJT
TAF
KSJT 301720Z 3018/0118 18012G17KT P6SM SCT060
     FM010000 17010KT P6SM SCT200
     FM011500 19013G20KT P6SM FEW120=

USA.gov is the U.S. government's official web portal to all federal, state and local government web resources and services.